User: anonymous   Login
Location: Unspecified
(0.0000°N, 0.0000°E)
Time: 11:09:16
(UTC+00:00)
Language:

DUCHIFAT 1 - Orbit

View from above orbital plane
View from above orbital plane
View from above satellite
View from above satellite

Ground track
Ground track

The orbit data is extracted from the following two-line orbital elements,

1 40021U 14033M   23331.91714724  .00014700  00000-0  11414-2 0  9990
2 40021  98.0750 301.6563 0015838  68.2991 291.9917 15.01349269513728
Epoch (UTC): 27 November 2023 22:00:41
Eccentricity: 0.0015838
inclination: 98.0750°
perigee height: 552 km
apogee height: 574 km
right ascension of ascending node: 301.6563°
argument of perigee: 68.2991°
revolutions per day: 15.01349269
mean anomaly at epoch: 291.9917°
orbit number at epoch: 51372

The dashed part of the orbit path shows where the satellite is in the earth's shadow,  

DLR